Terminal Aerodrome Forecast
Issued by NWS Cheyenne, WY

Home | Current Version | Previous Version | Text Only | Print | Product List | Glossary On
Versions: 1 2 3 4 5 6 7 8 9 10 11 12 13 14 15 16 17 18 19 20 21 22 23 24 25 26 27 28 29 30 31 32 33 34 35 36
000
FTUS45 KCYS 261954 AAA
TAFCYS
TAF AMD
KCYS 261954Z 2620/2718 13015G25KT 4SM -RA BR SCT005 OVC010
     FM262100 12010G20KT 3SM -RA BR OVC007
     FM270600 11011KT 1/2SM DZ FG OVC002=

USA.gov is the U.S. government's official web portal to all federal, state and local government web resources and services.